Regional Weather Roundup
Issued by NWS

Home | Current Version | Previous Version | Graphics & Text | Print | Product List | Glossary Off
Versions: 1 2 3 4 5 6 7 8 9 10 11 12 13 14 15 16 17 18 19 20 21 22 23 24 25 26 27 28 29 30 31 32 33 34 35 36 37 38 39 40 41 42 43 44 45 46 47 48 49 50

000
ASUS43 KMKX 292121
RWRWI

WISCONSIN REGIONAL WEATHER ROUNDUP
NATIONAL WEATHER SERVICE MILWAUKEE/SULLIVAN WI
400 PM CDT WED OCT 29 2014

NOTE: "FAIR" INDICATES FEW OR NO CLOUDS BELOW 12,000 FEET WITH NO
SIGNIFICANT WEATHER AND/OR OBSTRUCTIONS TO VISIBILITY.

WIZ001-002-006>008-014>016-023>028-292200-
NORTHWEST WISCONSIN

CITY           SKY/WX    TMP DP  RH WIND       PRES   REMARKS
SUPERIOR ARPT  CLOUDY    43  34  70 W5        30.08S
ASHLAND        CLOUDY    43  33  68 SW7       30.08S
HAYWARD        CLOUDY    41  32  70 VRB6      30.09S
SIREN          CLOUDY    41  32  71 SW7       30.10S
CUMBERLAND     CLOUDY    41  32  70 W8        30.08F
RICE LAKE      CLOUDY    42  32  69 SW6       30.11F
CHETEK         CLOUDY    42  33  69 W8        30.10S
LADYSMITH      CLOUDY    42  34  72 W10       30.10S
EAU CLAIRE     CLOUDY    45  32  60 W9        30.10S
MENOMONIE      CLOUDY    45  32  61 W10       30.11S
NEW RICHMOND   CLOUDY    42  32  66 W8        30.11F
OSCEOLA        CLOUDY    41  33  71 W6        30.14S
$$

WIZ003>005-009-010-017-018-292200-
NORTH CENTRAL WISCONSIN

CITY           SKY/WX    TMP DP  RH WIND       PRES   REMARKS
MANITOWISH WTR CLOUDY    39  33  78 NW6       30.05S WCI  35
ARBOR VITAE    CLOUDY    42  35  77 N6        30.05S
WOODRUFF       CLOUDY    42  35  77 N6        30.05S
RHINELANDER    CLOUDY    40  32  73 W7        30.06R
EAGLE RIVER    CLOUDY    40  32  71 NW9       30.05R WCI  34
LAND O LAKES   DRIZZLE   39  37  92 NW7       30.05R WCI  34
PHILLIPS       CLOUDY    41  32  71 W5        30.06S
TOMAHAWK       CLOUDY    42  32  68 CALM      30.06S
MEDFORD        CLOUDY    43  33  65 NW9       30.07R
MERRILL        CLOUDY    43  34  68 W7        30.06R
$$

WIZ029-030-035-036-043>047-292200-
CENTRAL WISCONSIN

CITY           SKY/WX    TMP DP  RH WIND       PRES   REMARKS
WAUSAU         PTSUNNY   43  33  68 W9        30.05S
MOSINEE        PTSUNNY   45  36  70 NW6       30.07S
MARSHFIELD     PTSUNNY   47  33  58 N10       30.07S
STEVENS POINT  PTSUNNY   42  31  64 NW7       30.08R
WAUPACA        CLOUDY    48  34  57 NW8       30.08S
WAUTOMA        CLOUDY    48  33  56 W10       30.09R
WISC RAPIDS    MOSUNNY   46  31  55 W8        30.09S
CAMP DOUGLAS   MOSUNNY   48  34  57 W8        30.10R
$$

WIZ011>013-019>022-031-037>040-048>050-292200-
NORTHEAST WISCONSIN

CITY           SKY/WX    TMP DP  RH WIND       PRES   REMARKS
ANTIGO         CLOUDY    42  33  70 W10       30.05S
SHAWANO        CLOUDY    49  34  56 W7        30.06R
OCONTO         CLOUDY    49  34  56 NW5       30.04R
STURGEON BAY   CLOUDY    46  34  61 NW8       30.04R
GREEN BAY      CLOUDY    48  35  60 W10       30.05R
MANITOWOC      CLOUDY    48  35  60 NW12      30.06R
APPLETON       PTSUNNY   46  32  57 NW10      30.06R
CLINTONVILLE   CLOUDY    46  32  57 NW9       30.06S
OSHKOSH        CLOUDY    46  34  62 W9        30.07R
$$

WIZ032>034-041-042-053>061-292200-
SOUTHWEST WISCONSIN

CITY           SKY/WX    TMP DP  RH WIND       PRES   REMARKS
LA CROSSE      SUNNY     50  32  50 N5        30.11F
SPARTA         MOSUNNY   46  31  56 W7        30.12R
VIROQUA        SUNNY     46  32  57 W5        30.10S
BOSCOBEL       MOSUNNY   50  32  50 VRB5      30.12S
PRAIRIE DU CHI MOSUNNY   48  31  52 W6        30.12S
PLATTEVILLE    MOSUNNY   47  32  55 W7        30.13R
$$

WIZ056-057-062-063-064-067-068-292200-
SOUTH CENTRAL WISCONSIN

CITY           SKY/WX    TMP DP  RH WIND       PRES   REMARKS
REEDSBURG      SUNNY     45  32  60 NW7       30.09S
BARABOO/DELLS  MOSUNNY   46  31  57 NW9       30.09S
LONE ROCK      SUNNY     52  31  44 W10       30.11R
MINERAL POINT  SUNNY     50  30  46 NW7       30.10R
MADISON        PTSUNNY   48  31  51 W9        30.10R
MIDDLETON      MOSUNNY   51  31  45 NW9       30.10R
WATERTOWN      CLOUDY    46  32  58 W8        30.09R
MONROE         PTSUNNY   46  32  57 NW7       30.10R
JANESVILLE     MOSUNNY   48  30  49 NW13      30.09R
$$

WIZ051-052-058>065-066-070>072-292200-
SOUTHEAST WISCONSIN

CITY           SKY/WX    TMP DP  RH WIND       PRES   REMARKS
MILWAUKEE      CLOUDY    47  30  51 W14       30.08R
WAUKESHA       CLOUDY    45  30  57 NW12G17   30.09R
MILWAUKEE/TIMM CLOUDY    46  28  49 NW8G16    30.08R
RACINE         PTSUNNY   48  31  51 NW8       30.09R
BURLINGTON     PTSUNNY   46  31  55 NW10      30.09R
KENOSHA        PTSUNNY   48  31  51 NW7       30.08R
FOND DU LAC    CLOUDY    46  32  58 W9        30.08R
SHEBOYGAN      CLOUDY    47  34  60 NW9       30.06R
WEST BEND      CLOUDY    45  30  57 W12       30.07R
JUNEAU         CLOUDY    46  32  58 NW9       30.09R
$$

LSZ147-162-292200-
LAKE SUPERIOR

STATION/POSITION TIME  TEMP    WIND        PRES    WAVE
                       AIR SEA DIR/SP/G            HT/PER
                 (UTC) (F)     (DEG/KT/KT) (MB)    (FT/S)
W MID LAKE BUOY  2050   42 45  260/ 14/ 16 1017.9S   2/ 4
DEVILS ISLAND    2100   43     250/ 14/ 17 1018.8R
PORT WING        2000   42     260/  9/ 13 1019.0
SAXON HARBOR     2000   45     300/  8/ 11 1018.3S
$$

LMZ867-665-643>646-292200-
LAKE MICHIGAN

STATION/POSITION TIME  TEMP    WIND        PRES    WAVE
                       AIR SEA DIR/SP/G            HT/PER
                 (UTC) (F)     (DEG/KT/KT) (MB)    (FT/S)
CHAMBERS ISLAND  2000   47     310/ 11/ 15 1016.6R
N MID LAKE BUOY  2050   45 51  340/ 14/ 16 1016.7R   3/ 4
NORTHPORT PIER   2000   47     320/ 14/ 16 1016.3R
KEWAUNEE LAKESHO 2100   48     300/  7/ 10 1016.4R
SHEBOYGAN LAKESH 2100   47 51  280/  8/  9 1018.7R
PORT WASHINGTON  2000   48     280/  8/ 12 1018.3
ATWATER BUOY     2100   48     280/ 14/ 16 1019.4R
MILWAUKEE LAKESH 2100   47     290/ 10/ 14   N/A
S MID LAKE BUOY  2050   47 53  290/ 16/ 19 1018.5R   4/ 5
KENOSHA   LAKESH 2100   48     310/ 12/ 15 1018.6R
$$

TC  - TEMPERATURE IN CELSIUS
VSB - VISIBILITY IN STATUTE MILES
WCI - WIND CHILL INDEX
HX  - HEAT INDEX




USA.gov is the U.S. government's official web portal to all federal, state and local government web resources and services.